Simultaneous Nadir Overpasses (SNOs) Predictions

Prediction of SNOs between LANDSAT-8 and NPP Satellite Orbit:

Table of predicted SNOs for the next 14.0 days since TLE Epoch: 11/13/2015
Index Date (LANDSAT-8) Time (LANDSAT-8) Lat,Lon (LANDSAT-8) SZA (LANDSAT-8 ) Date (NPP) Time (NPP) Lat,Lon (NPP) SZA (NPP ) Distance(km) Time Diff (sec)
1 11/14/2015 13:03:04 -70.39, 161.11 91.50 11/14/2015 13:02:02 -70.41, 161.07 91.48 2.51 62
2 11/14/2015 13:52:31 70.29, -31.39 88.41 11/14/2015 13:52:46 70.30, -31.45 88.43 2.68 15
3 11/14/2015 14:42:09 -69.74, 135.46 92.14 11/14/2015 14:43:19 -69.73, 136.73 92.14 49.05 70
4 11/17/2015 05:19:35 -70.35, -83.08 90.86 11/17/2015 05:18:56 -70.37, -83.11 90.84 2.77 39
5 11/17/2015 06:09:02 70.25, 84.42 89.05 11/17/2015 06:09:39 70.22, 84.44 89.02 3.39 37
6 11/19/2015 20:46:27 70.90,-134.01 90.33 11/19/2015 20:45:18 70.97,-135.64 90.40 59.79 69
7 11/19/2015 21:36:06 -70.30, 32.73 90.28 11/19/2015 21:35:49 -70.29, 32.79 90.29 2.50 17
8 11/19/2015 22:25:33 70.19,-159.78 89.63 11/19/2015 22:26:33 70.19,-159.75 89.63 1.05 60
9 11/22/2015 13:03:05 70.39, -18.89 90.41 11/22/2015 13:02:00 70.37, -18.90 90.39 1.91 65
10 11/22/2015 13:52:35 -70.28, 148.59 89.69 11/22/2015 13:52:42 -70.26, 148.59 89.72 2.46 7
11 11/22/2015 14:42:09 69.79, -44.47 89.82 11/22/2015 14:43:19 69.80, -43.40 89.83 41.09 70
12 11/25/2015 05:19:35 70.36, 96.95 90.94 11/25/2015 05:18:54 70.36, 96.89 90.93 2.29 41
13 11/25/2015 06:09:05 -70.26, -95.57
